Location: Six Mile Lake
(44.9000°N, 79.7170°W)
Time: 01:54:57
(UTC-04:00)

O/OREOS (USA 219) - Pass Details

Date: 07 July 2022
Orbit: 621 x 646 km, 72.0° (Epoch: 22 May)

Event Time Altitude Azimuth Distance (km) Brightness Sun altitude
Rises 00:29:48 0° 335° (NNW) 2,966 ? -21.4°
Reaches altitude 10° 00:32:05 10° 336° (NNW) 2,053 ? -21.5°
Maximum altitude 00:36:43 89° 260° (W) 652 ? -21.7°
Enters shadow 00:37:31 61° 158° (SSE) 733 ? -21.7°
